LAPAN-A2 (40931 NORAD) Tracking and Keplerian Element Data

This shows tracking and keplerian element data for the satellite.

Feedback or suggestion? Click here.




ElementValue
Catalog40931
NameLAPAN-A2
Epoch Orbit18364
Epoch Day50.67521619
Epoch Year2019
RAAN185.3777
Inclination5.9965
Eccentricity0.0012436
Argument of Perigee269.3417
Mean Anonmoly90.5202
Mean Motion14.76597304
Decay Rate6.31E-06
L11 40931U 15052B 19050.67521619 .00000631 00000-0 -11729-5 0 9998
L22 40931 5.9965 185.3777 0012436 269.3417 90.5202 14.76597304183645

Live tracking and technical data element details for LAPAN-A2 (NORAD 40931). LAPAN-A2 can be tracked NOW for your location showing map with azimuth and elevation plus other details from your city location.

Track the satellite on the map from your city or location and see movement details for azimuth, elevation, latitude, longitude, range, height, and movement on the map or in text.







IsCatalogInMostPopularTable: catalog: 40931, numindb: 205
Update: records affected: 1



GetName: 40931 LAPAN-A2

Hit Count: updated at: Thu, 21 Feb 2019 12:47:59 GMT